Weather History for South Haven, MI

Change the Weather History Date:

Friday, September 20, 2013

  Actual Average (KBIV) Record (KBIV)
Temperature  
Mean Temperature 70 °F 62 °F  
Max Temperature 75 °F 72 °F 87 °F (1974)
Min Temperature 64 °F 52 °F 32 °F (1956)
Degree Days  
Heating Degree Days 0 5  
Month to date heating degree days 51  
Since 1 July heating degree days 66  
Cooling Degree Days 4 1  
Month to date cooling degree days 53  
Year to date cooling degree days 671  
Growing Degree Days 20 (Base 50)    
Moisture  
Dew Point 65 °F    
Average Humidity 83    
Maximum Humidity 93    
Minimum Humidity 71    
Precipitation  
Precipitation 0.00 in 0.15 in 0.79 in (1957)
Month to date precipitation 2.31  
Year to date precipitation 25.52  
Sea Level Pressure  
Sea Level Pressure 29.80 in    
Wind  
Wind Speed 10 mph (SW)    
Max Wind Speed 15 mph    
Max Gust Speed 23 mph    
Visibility 10 miles    
Events      
T = Trace of Precipitation, MM = Missing Value Source: NWS Daily Summary

Daily Weather History Graph

Daily Weather History Graph

Search for Another Location

Airport:

Trip Planner

Search our weather history database for the weather conditions in past years. The results will help you decide how hot, cold, wet, or windy it might be!

Date:

Astronomy

Sep. 20, 2013 Rise Set
Actual Time 7:30 AM EDT 7:45 PM EDT
Civil Twilight 7:02 AM EDT 8:13 PM EDT
Nautical Twilight 6:29 AM EDT 8:46 PM EDT
Astronomical Twilight 5:55 AM EDT 9:19 PM EDT
Moon 8:15 PM EDT (9/20) 8:46 AM EDT (9/20)
Length of Visible Light 13h 10m
Length of Day
12h 14m
Full, 98% of the Moon is Illuminated
Sep 20
Full
Sep 26
Last Quarter
Oct 4
New
Oct 11
First Quarter
Oct 18
Full

Hourly Weather History & Observations

Time (EDT) Temp. Dew Point Humidity Pressure Visibility Wind Dir Wind Speed Gust Speed Precip Events Conditions
12:15 AM 73.8 °F 69.1 °F 85% 29.84 in 10.0 mi SSW 12.7 mph 18.4 mph N/A   Clear
12:35 AM 74.1 °F 69.3 °F 85% 29.84 in 10.0 mi South 10.4 mph - N/A   Mostly Cloudy
12:54 AM 74.3 °F 69.4 °F 85% 29.84 in 10.0 mi South 10.4 mph 19.6 mph N/A   Mostly Cloudy
1:15 AM 74.5 °F 69.6 °F 85% 29.83 in 10.0 mi South 11.5 mph - N/A   Mostly Cloudy
1:35 AM 74.3 °F 69.8 °F 86% 29.83 in 7.0 mi South 10.4 mph 17.3 mph N/A   Mostly Cloudy
1:55 AM 75.2 °F 69.8 °F 83% 29.83 in 10.0 mi South 9.2 mph 18.4 mph N/A   Mostly Cloudy
2:15 AM 75.4 °F 69.8 °F 83% 29.83 in 10.0 mi SSW 11.5 mph 16.1 mph N/A   Mostly Cloudy
2:35 AM 75.4 °F 70.0 °F 83% 29.82 in 10.0 mi SSW 9.2 mph - N/A   Mostly Cloudy
2:55 AM 75.2 °F 70.0 °F 84% 29.82 in 10.0 mi SSW 9.2 mph 17.3 mph N/A   Clear
3:15 AM 75.2 °F 70.0 °F 84% 29.81 in 10.0 mi SSW 6.9 mph - N/A   Clear
3:35 AM 75.0 °F 70.0 °F 84% 29.81 in 10.0 mi SSW 8.1 mph - N/A   Clear
3:55 AM 74.7 °F 70.2 °F 86% 29.81 in 10.0 mi SSW 8.1 mph - N/A   Scattered Clouds
4:15 AM 74.3 °F 70.2 °F 87% 29.81 in 7.0 mi SSW 6.9 mph - N/A   Scattered Clouds
4:35 AM 74.3 °F 70.0 °F 86% 29.79 in 10.0 mi SW 10.4 mph 17.3 mph N/A   Scattered Clouds
4:55 AM 73.8 °F 68.9 °F 85% 29.79 in 10.0 mi SW 8.1 mph - N/A   Scattered Clouds
5:15 AM 72.5 °F 68.4 °F 87% 29.78 in 10.0 mi SSW 4.6 mph - N/A   Clear
5:34 AM 72.5 °F 68.0 °F 86% 29.77 in 10.0 mi South 4.6 mph - N/A   Clear
5:55 AM 71.2 °F 68.9 °F 92% 29.78 in 7.0 mi South 4.6 mph - N/A   Clear
6:15 AM 71.4 °F 69.1 °F 92% 29.78 in 7.0 mi SSW 4.6 mph - N/A   Clear
6:34 AM 71.1 °F 69.1 °F 93% 29.80 in 7.0 mi West 8.1 mph - N/A   Mostly Cloudy
6:55 AM 71.6 °F 67.3 °F 86% 29.81 in 10.0 mi West 9.2 mph - N/A   Overcast
7:15 AM 70.0 °F 65.5 °F 86% 29.82 in 10.0 mi WSW 8.1 mph - N/A   Overcast
7:34 AM 70.0 °F 64.9 °F 84% 29.82 in 10.0 mi WSW 8.1 mph - N/A   Mostly Cloudy
7:55 AM 70.0 °F 65.3 °F 85% 29.83 in 10.0 mi SW 10.4 mph - N/A   Overcast
8:15 AM 69.8 °F 65.5 °F 86% 29.83 in 10.0 mi SW 11.5 mph 19.6 mph N/A   Overcast
8:34 AM 69.8 °F 65.7 °F 87% 29.82 in 10.0 mi SW 9.2 mph 16.1 mph N/A   Overcast
8:55 AM 69.8 °F 65.7 °F 87% 29.83 in 10.0 mi SW 9.2 mph - N/A   Overcast
9:15 AM 69.3 °F 65.8 °F 89% 29.83 in 10.0 mi SW 13.8 mph 23.0 mph N/A   Overcast
9:35 AM 69.1 °F 65.8 °F 89% 29.84 in 10.0 mi SW 12.7 mph 19.6 mph N/A   Overcast
9:55 AM 69.1 °F 66.2 °F 91% 29.83 in 10.0 mi SW 10.4 mph 17.3 mph N/A   Overcast
10:15 AM 69.8 °F 66.2 °F 88% 29.83 in 10.0 mi SW 8.1 mph 16.1 mph N/A   Overcast
10:35 AM 69.8 °F 65.8 °F 87% 29.83 in 10.0 mi SW 9.2 mph - N/A   Mostly Cloudy
10:55 AM 69.8 °F 65.7 °F 87% 29.83 in 10.0 mi SW 10.4 mph - N/A   Mostly Cloudy
11:15 AM 69.4 °F 65.7 °F 88% 29.83 in 10.0 mi WSW 11.5 mph - N/A   Overcast
11:35 AM 69.1 °F 65.5 °F 88% 29.82 in 10.0 mi SW 11.5 mph 18.4 mph N/A   Overcast
11:55 AM 70.0 °F 65.8 °F 87% 29.82 in 10.0 mi SW 8.1 mph - N/A   Mostly Cloudy
12:14 PM 70.3 °F 65.5 °F 85% 29.82 in 10.0 mi SW 10.4 mph 18.4 mph N/A   Mostly Cloudy
12:35 PM 70.2 °F 65.7 °F 86% 29.82 in 10.0 mi SW 13.8 mph 18.4 mph N/A   Overcast
12:55 PM 71.1 °F 65.7 °F 83% 29.82 in 10.0 mi SW 11.5 mph 21.9 mph N/A   Overcast
1:14 PM 72.1 °F 65.1 °F 78% 29.81 in 10.0 mi WSW 12.7 mph 21.9 mph N/A   Mostly Cloudy
1:35 PM 71.1 °F 65.5 °F 82% 29.81 in 10.0 mi SW 10.4 mph 18.4 mph N/A   Overcast
1:55 PM 70.3 °F 65.5 °F 85% 29.81 in 10.0 mi SW 12.7 mph 19.6 mph N/A   Overcast
2:14 PM 72.1 °F 65.7 °F 80% 29.80 in 10.0 mi SW 10.4 mph 20.7 mph N/A   Overcast
2:35 PM 72.0 °F 65.1 °F 79% 29.79 in 10.0 mi SW 15.0 mph 18.4 mph N/A   Overcast
2:53 PM 72.0 °F 65.3 °F 79% 29.79 in 10.0 mi WSW 11.5 mph 20.7 mph N/A   Overcast
3:15 PM 71.6 °F 65.3 °F 80% 29.79 in 10.0 mi WSW 11.5 mph 18.4 mph N/A   Overcast
3:35 PM 71.6 °F 65.3 °F 80% 29.79 in 10.0 mi WSW 10.4 mph - N/A   Overcast
3:54 PM 71.2 °F 65.3 °F 81% 29.78 in 10.0 mi SW 13.8 mph 19.6 mph N/A   Overcast
4:15 PM 71.8 °F 65.5 °F 80% 29.78 in 10.0 mi SW 10.4 mph 20.7 mph N/A   Overcast
4:35 PM 71.6 °F 65.3 °F 80% 29.78 in 10.0 mi SW 10.4 mph 19.6 mph N/A   Overcast
4:54 PM 71.6 °F 65.1 °F 80% 29.77 in 10.0 mi WSW 9.2 mph - N/A   Overcast
5:15 PM 71.6 °F 64.6 °F 78% 29.77 in 10.0 mi WSW 6.9 mph 16.1 mph N/A   Mostly Cloudy
5:35 PM 71.6 °F 64.6 °F 78% 29.77 in 10.0 mi WSW 6.9 mph - N/A   Scattered Clouds
5:54 PM 71.1 °F 64.4 °F 79% 29.77 in 10.0 mi WSW 8.1 mph - N/A   Scattered Clouds
6:15 PM 70.7 °F 64.4 °F 80% 29.77 in 10.0 mi WSW 5.8 mph - N/A   Scattered Clouds
6:34 PM 70.2 °F 64.2 °F 81% 29.77 in 10.0 mi WSW 4.6 mph - N/A   Clear
6:55 PM 69.8 °F 64.4 °F 83% 29.77 in 10.0 mi WSW 4.6 mph - N/A   Clear
7:15 PM 69.3 °F 64.2 °F 84% 29.76 in 10.0 mi WSW 4.6 mph - N/A   Clear
7:34 PM 68.9 °F 64.2 °F 85% 29.76 in 10.0 mi WSW 3.5 mph - N/A   Scattered Clouds
7:55 PM 68.9 °F 64.0 °F 84% 29.76 in 10.0 mi West 5.8 mph - N/A   Mostly Cloudy
8:15 PM 68.5 °F 63.1 °F 83% 29.77 in 10.0 mi WNW 8.1 mph - N/A   Mostly Cloudy
8:34 PM 68.0 °F 60.1 °F 76% 29.78 in 10.0 mi WNW 5.8 mph - N/A   Scattered Clouds
8:55 PM 68.0 °F 60.3 °F 76% 29.78 in 10.0 mi WNW 5.8 mph - N/A   Mostly Cloudy
9:15 PM 68.0 °F 60.6 °F 77% 29.78 in 10.0 mi WNW 6.9 mph - N/A   Overcast
9:34 PM 66.9 °F 60.4 °F 80% 29.79 in 10.0 mi NW 11.5 mph 20.7 mph N/A   Mostly Cloudy
9:55 PM 65.8 °F 59.2 °F 79% 29.79 in 10.0 mi NW 9.2 mph - N/A   Scattered Clouds
10:15 PM 65.7 °F 57.0 °F 74% 29.79 in 10.0 mi WNW 11.5 mph 20.7 mph N/A   Mostly Cloudy
10:35 PM 65.3 °F 55.8 °F 71% 29.79 in 10.0 mi WNW 10.4 mph 17.3 mph N/A   Scattered Clouds
10:55 PM 64.8 °F 55.2 °F 71% 29.80 in 10.0 mi WNW 9.2 mph 16.1 mph N/A   Clear
11:15 PM 64.4 °F 54.7 °F 71% 29.79 in 10.0 mi WNW 8.1 mph - N/A   Scattered Clouds
11:35 PM 64.4 °F 55.6 °F 73% 29.79 in 10.0 mi WNW 9.2 mph - N/A   Scattered Clouds
11:55 PM 64.8 °F 55.0 °F 71% 29.79 in 10.0 mi WNW 8.1 mph - N/A   Mostly Cloudy